Regional Weather Roundup
Issued by NWS

Home | Current Version | Previous Version | Graphics & Text | Print | Product List | Glossary Off
Versions: 1 2 3 4 5 6 7 8 9 10 11 12 13 14 15 16 17 18 19 20 21 22 23 24 25 26 27 28 29 30 31 32 33 34 35 36 37 38 39 40 41 42 43 44 45 46 47 48 49 50

953
ASUS43 KMKX 172320
RWRWI

WISCONSIN REGIONAL WEATHER ROUNDUP
NATIONAL WEATHER SERVICE MILWAUKEE/SULLIVAN WI
500 PM CST SAT FEB 17 2018

NOTE: "FAIR" INDICATES FEW OR NO CLOUDS BELOW 12,000 FEET WITH NO
SIGNIFICANT WEATHER AND/OR OBSTRUCTIONS TO VISIBILITY.

WIZ001-002-006>008-014>016-023>028-180000-
NORTHWEST WISCONSIN

CITY           SKY/WX    TMP DP  RH WIND       PRES   REMARKS
SUPERIOR ARPT  FAIR      27  11  49 W15       29.87R WCI  16
ASHLAND        MOCLDY    29  13  51 W10       29.83R WCI  20
HAYWARD        FAIR      31  11  43 VRB6G20   29.83R WCI  25
SIREN          MOCLDY    32  10  40 W15G23    29.88R WCI  21
CUMBERLAND     FAIR      30  12  47 W15       29.86R WCI  19
RICE LAKE      FAIR      32  14  46 W14G21    29.88R WCI  22
CHETEK         CLOUDY    30  21  69 CALM      29.87R
LADYSMITH      MOCLDY    32  20  61 SW10G17   29.85R WCI  24
EAU CLAIRE     FAIR      28  21  75 SW9       29.90R WCI  19
MENOMONIE      FAIR      31  23  72 SW9       29.91R WCI  23
NEW RICHMOND   FAIR      33  12  43 NW16G25   29.90R WCI  22
OSCEOLA        FAIR      33  13  44 W12       29.94R WCI  24
$$

WIZ003>005-009-010-017-018-180000-
NORTH CENTRAL WISCONSIN

CITY           SKY/WX    TMP DP  RH WIND       PRES   REMARKS
MANITOWISH WTR MOCLDY    28  16  60 SW9       29.75R WCI  20
ARBOR VITAE    FAIR      32  22  68 W8        29.77R WCI  25
WOODRUFF       FAIR      32  22  68 W8        29.77R WCI  25
RHINELANDER    CLOUDY    27  19  72 SW12      29.79R WCI  17
EAGLE RIVER    FAIR      27  16  62 W12       29.76R WCI  17
LAND O LAKES   MOCLDY    29  17  62 SW6       29.76R WCI  23
PHILLIPS       CLOUDY    29  20  70 SW10      29.79R WCI  20
TOMAHAWK       CLOUDY    27  19  73 SW5       29.82R WCI  21
MEDFORD        CLOUDY    25  20  83 W10       29.84R WCI  14
MERRILL        CLOUDY    26  20  80 SW12      29.83S WCI  15
$$

WIZ029-030-035-036-043>047-180000-
CENTRAL WISCONSIN

CITY           SKY/WX    TMP DP  RH WIND       PRES   REMARKS
WAUSAU         CLOUDY    25  20  81 SW7       29.83R WCI  17
MOSINEE        CLOUDY    25  21  86 SW10G17   29.87R WCI  15
MARSHFIELD     CLOUDY    26  20  77 W10       29.86R WCI  16
STEVENS POINT  CLOUDY    25  20  83 W8        29.88R WCI  16
WAUPACA        CLOUDY    29  23  76 SW8       29.91R WCI  21
WAUTOMA        CLOUDY    27  22  81 W13       29.93R WCI  16
WISC RAPIDS    CLOUDY    27  20  75 W7        29.91R WCI  19
CAMP DOUGLAS   CLOUDY    28  23  80 W7        29.92R WCI  21
$$

WIZ011>013-019>022-031-037>040-048>050-180000-
NORTHEAST WISCONSIN

CITY           SKY/WX    TMP DP  RH WIND       PRES   REMARKS
ANTIGO         CLOUDY    22  19  86 W12       29.81S WCI  11
SHAWANO        CLOUDY    28  22  79 SW7       29.87R WCI  21
OCONTO         CLOUDY    26  21  83 SW9       29.87R WCI  16
STURGEON BAY   FLURRIES  25  22  88 SW13      29.87R WCI  14
GREEN BAY      MOCLDY    26  22  84 SW7       29.88S WCI  18
MANITOWOC      MIX PCPN  27  23  85 SW12      29.91S WCI  17
APPLETON       MOCLDY    27  21  80 SW10      29.87S WCI  17
CLINTONVILLE   CLOUDY    27  20  76 W8        29.89R WCI  19
OSHKOSH        FAIR      26  22  84 SW7       29.90R WCI  18
$$

WIZ032>034-041-042-053>061-180000-
SOUTHWEST WISCONSIN

CITY           SKY/WX    TMP DP  RH WIND       PRES   REMARKS
LA CROSSE      CLOUDY    31  23  72 W7        29.97R WCI  24
SPARTA         CLOUDY    29  24  81 CALM      29.95S
VIROQUA        CLOUDY    27  24  89 W8        29.94R WCI  19
BOSCOBEL       MOCLDY    31  22  69 W6        29.99R WCI  25
PRAIRIE DU CHI CLOUDY    30  22  72 W8G16     30.00R WCI  23
PLATTEVILLE    CLOUDY    29  25  84 W13       29.97R WCI  19
$$

WIZ056-057-062-063-064-067-068-180000-
SOUTH CENTRAL WISCONSIN

CITY           SKY/WX    TMP DP  RH WIND       PRES   REMARKS
REEDSBURG      CLOUDY    28  22  79 W9        29.95R WCI  19
BARABOO/DELLS  CLOUDY    28  22  79 W7        29.93R WCI  20
LONE ROCK      CLOUDY    29  24  82 W8        29.97R WCI  21
MINERAL POINT  CLOUDY    30  28  93 W10       29.94R WCI  21
MADISON        CLOUDY    28  25  88 VRB3      29.95R
MIDDLETON      CLOUDY    30  25  83 W10       29.94R WCI  21
WATERTOWN      MOCLDY    28  28 100 SW6       29.93R WCI  21
MONROE         CLOUDY    28  25  86 W12       29.94R WCI  18
JANESVILLE     LGT SNOW  30  30 100 W9        29.94R WCI  22
$$

WIZ051-052-058>065-066-070>072-180000-
SOUTHEAST WISCONSIN

CITY           SKY/WX    TMP DP  RH WIND       PRES   REMARKS
MILWAUKEE      LGT SNOW  32  28  85 SW6       29.94R FOG     WCI  26
WAUKESHA       LGT SNOW  27  25  93 SW5       29.94R WCI  21
MILWAUKEE/TIMM CLOUDY    28  25  86 SW6       29.95R WCI  22
RACINE         CLOUDY    31  29  92 S5        29.95S FOG     WCI  26
BURLINGTON     LGT SNOW  30  28  91 SW5       29.94R WCI  25
KENOSHA        LGT SNOW  32  28  85 S6        29.93F VSB 1   WCI  26
FOND DU LAC    MOCLDY    27  22  81 SW7       29.91R WCI  19
SHEBOYGAN      LGT SNOW  27  26  96 SW6       29.91S FOG     WCI  20
WEST BEND      LGT SNOW  28  28 100 SW5       29.92R WCI  23
JUNEAU         CLOUDY    26  24  93 SW5       29.93R WCI  20
$$

LSZ147-162-180000-
LAKE SUPERIOR

STATION/POSITION TIME  TEMP    WIND        PRES    WAVE
                       AIR SEA DIR/SP/G            HT/PER
                 (UTC) (F)     (DEG/KT/KT) (MB)    (FT/S)
DEVILS ISLAND    2300   27     270/ 18/ 22 1010.6R
SAXON HARBOR     2230   31     290/ 12/ 16 1009.5R
$$

LMZ867-665-643>646-180000-
LAKE MICHIGAN

STATION/POSITION TIME  TEMP    WIND        PRES    WAVE
                       AIR SEA DIR/SP/G            HT/PER
                 (UTC) (F)     (DEG/KT/KT) (MB)    (FT/S)
NORTHPORT PIER   2309   25                 1010.2
KEWAUNEE LAKESHO 2254   26     240/  5/ 10 1011.4R
SHEBOYGAN LAKESH 2300   28     230/  6/  6 1014.1R
PORT WASHINGTON  2240   29     250/  5/  8 1014.6R
MILWAUKEE LAKESH 2300   31     240/  7/  8   N/A
KENOSHA   LAKESH 2300   30     170/  6/  9 1014.2
$$

TC  - TEMPERATURE IN CELSIUS
VSB - VISIBILITY IN STATUTE MILES
WCI - WIND CHILL INDEX
HX  - HEAT INDEX





USA.gov is the U.S. government's official web portal to all federal, state and local government web resources and services.